owner,sensor,date,latitude,longitude,vertical_datum,wind_speed,wind_to_direction,wind_speed_of_gust,qcFlag 
NDBC,ioos:station:NOAA.NDBC:SAUF1:1,2013-05-01T00:00:00Z,29.8570,-81.2650,16.5,3.1,100.0,,'1111122,1111122,1111122' 
NDBC,ioos:station:NOAA.NDBC:SAUF1:1,2013-05-01T01:00:00Z,29.8570,-81.2650,16.5,2.6,120.0,,'1111122,1111122,1111122' 
NDBC,ioos:station:NOAA.NDBC:SAUF1:1,2013-05-01T02:00:00Z,29.8570,-81.2650,16.5,2.6,120.0,,'1111122,1111122,1111122' 
NDBC,ioos:station:NOAA.NDBC:SAUF1:1,2013-05-01T03:00:00Z,29.8570,-81.2650,16.5,2.6,130.0,,'1111122,1111122,1111122' 
NDBC,ioos:station:NOAA.NDBC:SAUF1:1,2013-05-01T04:00:00Z,29.8570,-81.2650,16.5,3.6,90.0,,'1111122,1111122,1111122' 
NDBC,ioos:station:NOAA.NDBC:SAUF1:1,2013-05-01T05:00:00Z,29.8570,-81.2650,16.5,6.7,70.0,,'1111122,1111122,1111122' 
NDBC,ioos:station:NOAA.NDBC:SAUF1:1,2013-05-01T06:00:00Z,29.8570,-81.2650,16.5,8.2,90.0,,'1111122,1111122,1111122' 
NDBC,ioos:station:NOAA.NDBC:SAUF1:1,2013-05-01T07:00:00Z,29.8570,-81.2650,16.5,8.2,100.0,,'1111122,1111122,1111122' 
NDBC,ioos:station:NOAA.NDBC:SAUF1:1,2013-05-01T08:00:00Z,29.8570,-81.2650,16.5,6.7,100.0,,'1111122,1111122,1111122' 
NDBC,ioos:station:NOAA.NDBC:SAUF1:1,2013-05-01T09:00:00Z,29.8570,-81.2650,16.5,9.8,90.0,,'1111122,1111122,1111122' 
NDBC,ioos:station:NOAA.NDBC:SAUF1:1,2013-05-01T10:00:00Z,29.8570,-81.2650,16.5,9.3,100.0,,'1111122,1111122,1111122' 
NDBC,ioos:station:NOAA.NDBC:SAUF1:1,2013-05-01T11:00:00Z,29.8570,-81.2650,16.5,10.3,80.0,,'1111122,1111122,1111122' 
NDBC,ioos:station:NOAA.NDBC:SAUF1:1,2013-05-01T12:00:00Z,29.8570,-81.2650,16.5,10.3,90.0,,'1111122,1111122,1111122' 
NDBC,ioos:station:NOAA.NDBC:SAUF1:1,2013-05-01T13:00:00Z,29.8570,-81.2650,16.5,10.8,90.0,,'1111122,1111122,1111122' 
NDBC,ioos:station:NOAA.NDBC:SAUF1:1,2013-05-01T14:00:00Z,29.8570,-81.2650,16.5,11.3,90.0,,'1111122,1111122,1111122' 
NDBC,ioos:station:NOAA.NDBC:SAUF1:1,2013-05-01T15:00:00Z,29.8570,-81.2650,16.5,12.3,90.0,,'1111122,1111122,1111122' 
NDBC,ioos:station:NOAA.NDBC:SAUF1:1,2013-05-01T16:00:00Z,29.8570,-81.2650,16.5,11.8,80.0,,'1111122,1111122,1111122' 
NDBC,ioos:station:NOAA.NDBC:SAUF1:1,2013-05-01T17:00:00Z,29.8570,-81.2650,16.5,11.3,80.0,,'1111122,1111122,1111122' 
NDBC,ioos:station:NOAA.NDBC:SAUF1:1,2013-05-01T18:00:00Z,29.8570,-81.2650,16.5,11.3,80.0,,'1111122,1111122,1111122' 
NDBC,ioos:station:NOAA.NDBC:SAUF1:1,2013-05-01T19:00:00Z,29.8570,-81.2650,16.5,10.8,90.0,,'1111122,1111122,1111122' 
NDBC,ioos:station:NOAA.NDBC:SAUF1:1,2013-05-01T20:00:00Z,29.8570,-81.2650,16.5,9.3,70.0,,'1111122,1111122,1111122' 
NDBC,ioos:station:NOAA.NDBC:SAUF1:1,2013-05-01T21:00:00Z,29.8570,-81.2650,16.5,10.3,70.0,,'1111122,1111122,1111122' 
NDBC,ioos:station:NOAA.NDBC:SAUF1:1,2013-05-01T22:00:00Z,29.8570,-81.2650,16.5,10.3,70.0,,'1111122,1111122,1111122' 
NDBC,ioos:station:NOAA.NDBC:SAUF1:1,2013-05-01T23:00:00Z,29.8570,-81.2650,16.5,10.3,60.0,,'1111122,1111122,1111122' 
NDBC,ioos:station:NOAA.NDBC:SAUF1:1,2013-05-02T00:00:00Z,29.8570,-81.2650,16.5,9.8,60.0,,'1111122,1111122,1111122' 
NDBC,ioos:station:NOAA.NDBC:SAUF1:1,2013-05-02T01:00:00Z,29.8570,-81.2650,16.5,11.8,70.0,,'1111122,1111122,1111122' 
NDBC,ioos:station:NOAA.NDBC:SAUF1:1,2013-05-02T02:00:00Z,29.8570,-81.2650,16.5,10.8,90.0,,'1111122,1111122,1111122' 
NDBC,ioos:station:NOAA.NDBC:SAUF1:1,2013-05-02T03:00:00Z,29.8570,-81.2650,16.5,11.3,80.0,,'1111122,1111122,1111122' 
NDBC,ioos:station:NOAA.NDBC:SAUF1:1,2013-05-02T04:00:00Z,29.8570,-81.2650,16.5,12.9,80.0,,'1111122,1111122,1111122' 
NDBC,ioos:station:NOAA.NDBC:SAUF1:1,2013-05-02T05:00:00Z,29.8570,-81.2650,16.5,12.3,80.0,,'1111122,1111122,1111122' 
NDBC,ioos:station:NOAA.NDBC:SAUF1:1,2013-05-02T06:00:00Z,29.8570,-81.2650,16.5,12.9,80.0,,'1111122,1111122,1111122' 
NDBC,ioos:station:NOAA.NDBC:SAUF1:1,2013-05-02T07:00:00Z,29.8570,-81.2650,16.5,12.9,70.0,,'1111122,1111122,1111122' 
NDBC,ioos:station:NOAA.NDBC:SAUF1:1,2013-05-02T08:00:00Z,29.8570,-81.2650,16.5,9.8,80.0,,'1111122,1111122,1111122' 
NDBC,ioos:station:NOAA.NDBC:SAUF1:1,2013-05-02T09:00:00Z,29.8570,-81.2650,16.5,9.8,80.0,,'1111122,1111122,1111122' 
NDBC,ioos:station:NOAA.NDBC:SAUF1:1,2013-05-02T10:00:00Z,29.8570,-81.2650,16.5,10.3,80.0,,'1111122,1111122,1111122' 
NDBC,ioos:station:NOAA.NDBC:SAUF1:1,2013-05-02T11:00:00Z,29.8570,-81.2650,16.5,9.8,80.0,,'1111122,1111122,1111122' 
NDBC,ioos:station:NOAA.NDBC:SAUF1:1,2013-05-02T12:00:00Z,29.8570,-81.2650,16.5,10.3,80.0,,'1111122,1111122,1111122' 
NDBC,ioos:station:NOAA.NDBC:SAUF1:1,2013-05-02T13:00:00Z,29.8570,-81.2650,16.5,9.8,70.0,,'1111122,1111122,1111122' 
NDBC,ioos:station:NOAA.NDBC:SAUF1:1,2013-05-02T14:00:00Z,29.8570,-81.2650,16.5,8.2,70.0,,'1111122,1111122,1111122' 
NDBC,ioos:station:NOAA.NDBC:SAUF1:1,2013-05-02T15:00:00Z,29.8570,-81.2650,16.5,8.2,60.0,,'1111122,1111122,1111122' 
NDBC,ioos:station:NOAA.NDBC:SAUF1:1,2013-05-02T17:00:00Z,29.8570,-81.2650,16.5,7.7,60.0,,'1111122,1111122,1111122' 
NDBC,ioos:station:NOAA.NDBC:SAUF1:1,2013-05-02T18:00:00Z,29.8570,-81.2650,16.5,6.7,70.0,,'1111122,1111122,1111122' 
NDBC,ioos:station:NOAA.NDBC:SAUF1:1,2013-05-02T19:00:00Z,29.8570,-81.2650,16.5,4.1,70.0,,'1111122,1111122,1111122' 
NDBC,ioos:station:NOAA.NDBC:SAUF1:1,2013-05-02T20:00:00Z,29.8570,-81.2650,16.5,3.1,70.0,,'1111122,1111122,1111122' 
NDBC,ioos:station:NOAA.NDBC:SAUF1:1,2013-05-02T21:00:00Z,29.8570,-81.2650,16.5,3.1,60.0,,'1111122,1111122,1111122' 
NDBC,ioos:station:NOAA.NDBC:SAUF1:1,2013-05-02T22:00:00Z,29.8570,-81.2650,16.5,9.3,50.0,,'1111122,1111122,1111122' 
NDBC,ioos:station:NOAA.NDBC:SAUF1:1,2013-05-02T23:00:00Z,29.8570,-81.2650,16.5,8.2,60.0,,'1111122,1111122,1111122' 
NDBC,ioos:station:NOAA.NDBC:SAUF1:1,2013-05-03T00:00:00Z,29.8570,-81.2650,16.5,11.3,50.0,,'1111122,1111122,1111122' 
NDBC,ioos:station:NOAA.NDBC:SAUF1:1,2013-05-03T01:00:00Z,29.8570,-81.2650,16.5,11.3,50.0,,'1111122,1111122,1111122' 
NDBC,ioos:station:NOAA.NDBC:SAUF1:1,2013-05-03T02:00:00Z,29.8570,-81.2650,16.5,12.3,50.0,,'1111122,1111122,1111122' 
NDBC,ioos:station:NOAA.NDBC:SAUF1:1,2013-05-03T03:00:00Z,29.8570,-81.2650,16.5,11.3,50.0,,'1111122,1111122,1111122' 
NDBC,ioos:station:NOAA.NDBC:SAUF1:1,2013-05-03T04:00:00Z,29.8570,-81.2650,16.5,10.8,50.0,,'1111122,1111122,1111122' 
NDBC,ioos:station:NOAA.NDBC:SAUF1:1,2013-05-03T05:00:00Z,29.8570,-81.2650,16.5,10.3,60.0,,'1111122,1111122,1111122' 
NDBC,ioos:station:NOAA.NDBC:SAUF1:1,2013-05-03T06:00:00Z,29.8570,-81.2650,16.5,10.8,60.0,,'1111122,1111122,1111122' 
NDBC,ioos:station:NOAA.NDBC:SAUF1:1,2013-05-03T07:00:00Z,29.8570,-81.2650,16.5,9.8,50.0,,'1111122,1111122,1111122' 
NDBC,ioos:station:NOAA.NDBC:SAUF1:1,2013-05-03T08:00:00Z,29.8570,-81.2650,16.5,10.3,40.0,,'1111122,1111122,1111122' 
NDBC,ioos:station:NOAA.NDBC:SAUF1:1,2013-05-03T09:00:00Z,29.8570,-81.2650,16.5,9.8,40.0,,'1111122,1111122,1111122' 
NDBC,ioos:station:NOAA.NDBC:SAUF1:1,2013-05-03T10:00:00Z,29.8570,-81.2650,16.5,11.3,50.0,,'1111122,1111122,1111122' 
NDBC,ioos:station:NOAA.NDBC:SAUF1:1,2013-05-03T11:00:00Z,29.8570,-81.2650,16.5,10.3,60.0,,'1111122,1111122,1111122' 
NDBC,ioos:station:NOAA.NDBC:SAUF1:1,2013-05-03T12:00:00Z,29.8570,-81.2650,16.5,8.2,80.0,,'1111122,1111122,1111122' 
NDBC,ioos:station:NOAA.NDBC:SAUF1:1,2013-05-03T13:00:00Z,29.8570,-81.2650,16.5,10.3,70.0,,'1111122,1111122,1111122' 
NDBC,ioos:station:NOAA.NDBC:SAUF1:1,2013-05-03T14:00:00Z,29.8570,-81.2650,16.5,9.8,70.0,,'1111122,1111122,1111122' 
NDBC,ioos:station:NOAA.NDBC:SAUF1:1,2013-05-03T15:00:00Z,29.8570,-81.2650,16.5,10.8,70.0,,'1111122,1111122,1111122' 
NDBC,ioos:station:NOAA.NDBC:SAUF1:1,2013-05-03T16:00:00Z,29.8570,-81.2650,16.5,10.3,70.0,,'1111122,1111122,1111122' 
NDBC,ioos:station:NOAA.NDBC:SAUF1:1,2013-05-03T17:00:00Z,29.8570,-81.2650,16.5,11.3,70.0,,'1111122,1111122,1111122' 
NDBC,ioos:station:NOAA.NDBC:SAUF1:1,2013-05-03T18:00:00Z,29.8570,-81.2650,16.5,9.8,80.0,,'1111122,1111122,1111122' 
NDBC,ioos:station:NOAA.NDBC:SAUF1:1,2013-05-03T19:00:00Z,29.8570,-81.2650,16.5,10.3,70.0,,'1111122,1111122,1111122' 
NDBC,ioos:station:NOAA.NDBC:SAUF1:1,2013-05-03T20:00:00Z,29.8570,-81.2650,16.5,11.3,80.0,,'1111122,1111122,1111122' 
NDBC,ioos:station:NOAA.NDBC:SAUF1:1,2013-05-03T21:00:00Z,29.8570,-81.2650,16.5,10.8,80.0,,'1111122,1111122,1111122' 
NDBC,ioos:station:NOAA.NDBC:SAUF1:1,2013-05-03T22:00:00Z,29.8570,-81.2650,16.5,11.3,90.0,,'1111122,1111122,1111122' 
NDBC,ioos:station:NOAA.NDBC:SAUF1:1,2013-05-03T23:00:00Z,29.8570,-81.2650,16.5,10.8,80.0,,'1111122,1111122,1111122' 
NDBC,ioos:station:NOAA.NDBC:SAUF1:1,2013-05-04T00:00:00Z,29.8570,-81.2650,16.5,11.3,80.0,,'1111122,1111122,1111122' 
NDBC,ioos:station:NOAA.NDBC:SAUF1:1,2013-05-04T01:00:00Z,29.8570,-81.2650,16.5,11.8,90.0,,'1111122,1111122,1111122' 
NDBC,ioos:station:NOAA.NDBC:SAUF1:1,2013-05-04T02:00:00Z,29.8570,-81.2650,16.5,12.9,80.0,,'1111122,1111122,1111122' 
NDBC,ioos:station:NOAA.NDBC:SAUF1:1,2013-05-04T03:00:00Z,29.8570,-81.2650,16.5,13.9,90.0,,'1111122,1111122,1111122' 
NDBC,ioos:station:NOAA.NDBC:SAUF1:1,2013-05-04T04:00:00Z,29.8570,-81.2650,16.5,12.9,90.0,,'1111122,1111122,1111122' 
NDBC,ioos:station:NOAA.NDBC:SAUF1:1,2013-05-04T05:00:00Z,29.8570,-81.2650,16.5,12.9,90.0,,'1111122,1111122,1111122' 
NDBC,ioos:station:NOAA.NDBC:SAUF1:1,2013-05-04T06:00:00Z,29.8570,-81.2650,16.5,10.3,90.0,,'1111122,1111122,1111122' 
NDBC,ioos:station:NOAA.NDBC:SAUF1:1,2013-05-04T07:00:00Z,29.8570,-81.2650,16.5,9.3,90.0,,'1111122,1111122,1111122' 
NDBC,ioos:station:NOAA.NDBC:SAUF1:1,2013-05-04T08:00:00Z,29.8570,-81.2650,16.5,8.7,110.0,,'1111122,1111122,1111122' 
NDBC,ioos:station:NOAA.NDBC:SAUF1:1,2013-05-04T09:00:00Z,29.8570,-81.2650,16.5,8.2,90.0,,'1111122,1111122,1111122' 
NDBC,ioos:station:NOAA.NDBC:SAUF1:1,2013-05-04T10:00:00Z,29.8570,-81.2650,16.5,8.7,90.0,,'1111122,1111122,1111122' 
NDBC,ioos:station:NOAA.NDBC:SAUF1:1,2013-05-04T11:00:00Z,29.8570,-81.2650,16.5,7.7,80.0,,'1111122,1111122,1111122' 
NDBC,ioos:station:NOAA.NDBC:SAUF1:1,2013-05-04T12:00:00Z,29.8570,-81.2650,16.5,7.7,80.0,,'1111122,1111122,1111122' 
NDBC,ioos:station:NOAA.NDBC:SAUF1:1,2013-05-04T13:00:00Z,29.8570,-81.2650,16.5,8.2,80.0,,'1111122,1111122,1111122' 
NDBC,ioos:station:NOAA.NDBC:SAUF1:1,2013-05-04T14:00:00Z,29.8570,-81.2650,16.5,6.7,80.0,,'1111122,1111122,1111122' 
NDBC,ioos:station:NOAA.NDBC:SAUF1:1,2013-05-04T15:00:00Z,29.8570,-81.2650,16.5,6.7,80.0,,'1111122,1111122,1111122' 
NDBC,ioos:station:NOAA.NDBC:SAUF1:1,2013-05-04T16:00:00Z,29.8570,-81.2650,16.5,5.1,70.0,,'1111122,1111122,1111122' 
NDBC,ioos:station:NOAA.NDBC:SAUF1:1,2013-05-04T17:00:00Z,29.8570,-81.2650,16.5,6.7,310.0,,'1111122,1111122,1111122' 
NDBC,ioos:station:NOAA.NDBC:SAUF1:1,2013-05-04T18:00:00Z,29.8570,-81.2650,16.5,7.7,330.0,,'1111122,1111122,1111122' 
NDBC,ioos:station:NOAA.NDBC:SAUF1:1,2013-05-04T19:00:00Z,29.8570,-81.2650,16.5,9.3,330.0,,'1111122,1111122,1111122' 
NDBC,ioos:station:NOAA.NDBC:SAUF1:1,2013-05-04T20:00:00Z,29.8570,-81.2650,16.5,9.8,330.0,,'1111122,1111122,1111122' 
NDBC,ioos:station:NOAA.NDBC:SAUF1:1,2013-05-04T21:00:00Z,29.8570,-81.2650,16.5,10.3,330.0,,'1111122,1111122,1111122' 
NDBC,ioos:station:NOAA.NDBC:SAUF1:1,2013-05-04T22:00:00Z,29.8570,-81.2650,16.5,9.8,330.0,,'1111122,1111122,1111122' 
NDBC,ioos:station:NOAA.NDBC:SAUF1:1,2013-05-04T23:00:00Z,29.8570,-81.2650,16.5,10.8,330.0,,'1111122,1111122,1111122' 
NDBC,ioos:station:NOAA.NDBC:SAUF1:1,2013-05-05T00:00:00Z,29.8570,-81.2650,16.5,8.7,340.0,,'1111122,1111122,1111122' 
NDBC,ioos:station:NOAA.NDBC:SAUF1:1,2013-05-05T01:00:00Z,29.8570,-81.2650,16.5,8.2,330.0,,'1111122,1111122,1111122' 
NDBC,ioos:station:NOAA.NDBC:SAUF1:1,2013-05-05T02:00:00Z,29.8570,-81.2650,16.5,8.2,330.0,,'1111122,1111122,1111122' 
NDBC,ioos:station:NOAA.NDBC:SAUF1:1,2013-05-05T03:00:00Z,29.8570,-81.2650,16.5,11.3,340.0,,'1111122,1111122,1111122' 
NDBC,ioos:station:NOAA.NDBC:SAUF1:1,2013-05-05T04:00:00Z,29.8570,-81.2650,16.5,11.3,330.0,,'1111122,1111122,1111122' 
NDBC,ioos:station:NOAA.NDBC:SAUF1:1,2013-05-05T05:00:00Z,29.8570,-81.2650,16.5,11.3,340.0,,'1111122,1111122,1111122' 
NDBC,ioos:station:NOAA.NDBC:SAUF1:1,2013-05-05T06:00:00Z,29.8570,-81.2650,16.5,9.8,330.0,,'1111122,1111122,1111122' 
NDBC,ioos:station:NOAA.NDBC:SAUF1:1,2013-05-05T07:00:00Z,29.8570,-81.2650,16.5,9.8,340.0,,'1111122,1111122,1111122' 
NDBC,ioos:station:NOAA.NDBC:SAUF1:1,2013-05-05T08:00:00Z,29.8570,-81.2650,16.5,8.7,340.0,,'1111122,1111122,1111122' 
NDBC,ioos:station:NOAA.NDBC:SAUF1:1,2013-05-05T09:00:00Z,29.8570,-81.2650,16.5,8.7,330.0,,'1111122,1111122,1111122' 
NDBC,ioos:station:NOAA.NDBC:SAUF1:1,2013-05-05T10:00:00Z,29.8570,-81.2650,16.5,6.2,320.0,,'1111122,1111122,1111122' 
NDBC,ioos:station:NOAA.NDBC:SAUF1:1,2013-05-05T11:00:00Z,29.8570,-81.2650,16.5,6.7,310.0,,'1111122,1111122,1111122' 
NDBC,ioos:station:NOAA.NDBC:SAUF1:1,2013-05-05T12:00:00Z,29.8570,-81.2650,16.5,4.6,320.0,,'1111122,1111122,1111122' 
NDBC,ioos:station:NOAA.NDBC:SAUF1:1,2013-05-05T13:00:00Z,29.8570,-81.2650,16.5,4.6,320.0,,'1111122,1111122,1111122' 
NDBC,ioos:station:NOAA.NDBC:SAUF1:1,2013-05-05T14:00:00Z,29.8570,-81.2650,16.5,2.6,310.0,,'1111122,1111122,1111122' 
NDBC,ioos:station:NOAA.NDBC:SAUF1:1,2013-05-05T15:00:00Z,29.8570,-81.2650,16.5,1.0,300.0,,'1111122,1111122,1111122' 
NDBC,ioos:station:NOAA.NDBC:SAUF1:1,2013-05-05T16:00:00Z,29.8570,-81.2650,16.5,8.2,280.0,,'1111122,1111122,1111122' 
NDBC,ioos:station:NOAA.NDBC:SAUF1:1,2013-05-05T17:00:00Z,29.8570,-81.2650,16.5,9.8,280.0,,'1111122,1111122,1111122' 
NDBC,ioos:station:NOAA.NDBC:SAUF1:1,2013-05-05T18:00:00Z,29.8570,-81.2650,16.5,8.7,260.0,,'1111122,1111122,1111122' 
NDBC,ioos:station:NOAA.NDBC:SAUF1:1,2013-05-05T19:00:00Z,29.8570,-81.2650,16.5,9.3,260.0,,'1111122,1111122,1111122' 
NDBC,ioos:station:NOAA.NDBC:SAUF1:1,2013-05-05T20:00:00Z,29.8570,-81.2650,16.5,9.8,240.0,,'1111122,1111122,1111122' 
NDBC,ioos:station:NOAA.NDBC:SAUF1:1,2013-05-05T21:00:00Z,29.8570,-81.2650,16.5,10.8,230.0,,'1111122,1111122,1111122' 
NDBC,ioos:station:NOAA.NDBC:SAUF1:1,2013-05-05T22:00:00Z,29.8570,-81.2650,16.5,9.3,270.0,,'1111122,1111122,1111122' 
NDBC,ioos:station:NOAA.NDBC:SAUF1:1,2013-05-05T23:00:00Z,29.8570,-81.2650,16.5,11.8,280.0,,'1111122,1111122,1111122' 
NDBC,ioos:station:NOAA.NDBC:SAUF1:1,2013-05-06T00:00:00Z,29.8570,-81.2650,16.5,11.3,270.0,,'1111122,1111122,1111122' 
NDBC,ioos:station:NOAA.NDBC:SAUF1:1,2013-05-06T01:00:00Z,29.8570,-81.2650,16.5,12.9,270.0,,'1111122,1111122,1111122' 
NDBC,ioos:station:NOAA.NDBC:SAUF1:1,2013-05-06T02:00:00Z,29.8570,-81.2650,16.5,13.4,270.0,,'1111122,1111122,1111122' 
NDBC,ioos:station:NOAA.NDBC:SAUF1:1,2013-05-06T04:00:00Z,29.8570,-81.2650,16.5,11.3,320.0,,'1111122,1111122,1111122' 
NDBC,ioos:station:NOAA.NDBC:SAUF1:1,2013-05-06T05:00:00Z,29.8570,-81.2650,16.5,10.3,330.0,,'1111122,1111122,1111122' 
NDBC,ioos:station:NOAA.NDBC:SAUF1:1,2013-05-06T06:00:00Z,29.8570,-81.2650,16.5,11.3,330.0,,'1111122,1111122,1111122' 
NDBC,ioos:station:NOAA.NDBC:SAUF1:1,2013-05-06T07:00:00Z,29.8570,-81.2650,16.5,10.3,330.0,,'1111122,1111122,1111122' 
NDBC,ioos:station:NOAA.NDBC:SAUF1:1,2013-05-06T08:00:00Z,29.8570,-81.2650,16.5,10.3,340.0,,'1111122,1111122,1111122' 
NDBC,ioos:station:NOAA.NDBC:SAUF1:1,2013-05-06T09:00:00Z,29.8570,-81.2650,16.5,7.7,330.0,,'1111122,1111122,1111122' 
NDBC,ioos:station:NOAA.NDBC:SAUF1:1,2013-05-06T10:00:00Z,29.8570,-81.2650,16.5,7.2,340.0,,'1111122,1111122,1111122' 
NDBC,ioos:station:NOAA.NDBC:SAUF1:1,2013-05-06T11:00:00Z,29.8570,-81.2650,16.5,7.7,340.0,,'1111122,1111122,1111122' 
NDBC,ioos:station:NOAA.NDBC:SAUF1:1,2013-05-06T12:00:00Z,29.8570,-81.2650,16.5,8.2,330.0,,'1111122,1111122,1111122' 
NDBC,ioos:station:NOAA.NDBC:SAUF1:1,2013-05-06T13:00:00Z,29.8570,-81.2650,16.5,7.2,340.0,,'1111122,1111122,1111122' 
NDBC,ioos:station:NOAA.NDBC:SAUF1:1,2013-05-06T14:00:00Z,29.8570,-81.2650,16.5,7.2,330.0,,'1111122,1111122,1111122' 
NDBC,ioos:station:NOAA.NDBC:SAUF1:1,2013-05-06T15:00:00Z,29.8570,-81.2650,16.5,6.2,320.0,,'1111122,1111122,1111122' 
NDBC,ioos:station:NOAA.NDBC:SAUF1:1,2013-05-06T16:00:00Z,29.8570,-81.2650,16.5,4.6,310.0,,'1111122,1111122,1111122' 
NDBC,ioos:station:NOAA.NDBC:SAUF1:1,2013-05-06T17:00:00Z,29.8570,-81.2650,16.5,5.1,270.0,,'1111122,1111122,1111122' 
NDBC,ioos:station:NOAA.NDBC:SAUF1:1,2013-05-06T18:00:00Z,29.8570,-81.2650,16.5,6.7,280.0,,'1111122,1111122,1111122' 
NDBC,ioos:station:NOAA.NDBC:SAUF1:1,2013-05-06T19:00:00Z,29.8570,-81.2650,16.5,6.7,260.0,,'1111122,1111122,1111122' 
NDBC,ioos:station:NOAA.NDBC:SAUF1:1,2013-05-06T20:00:00Z,29.8570,-81.2650,16.5,6.2,260.0,,'1111122,1111122,1111122' 
NDBC,ioos:station:NOAA.NDBC:SAUF1:1,2013-05-06T21:00:00Z,29.8570,-81.2650,16.5,7.2,260.0,,'1111122,1111122,1111122' 
NDBC,ioos:station:NOAA.NDBC:SAUF1:1,2013-05-06T22:00:00Z,29.8570,-81.2650,16.5,6.7,270.0,,'1111122,1111122,1111122' 
NDBC,ioos:station:NOAA.NDBC:SAUF1:1,2013-05-06T23:00:00Z,29.8570,-81.2650,16.5,7.2,260.0,,'1111122,1111122,1111122' 
NDBC,ioos:station:NOAA.NDBC:SAUF1:1,2013-05-07T00:00:00Z,29.8570,-81.2650,16.5,7.2,260.0,,'1111122,1111122,1111122' 
NDBC,ioos:station:NOAA.NDBC:SAUF1:1,2013-05-07T01:00:00Z,29.8570,-81.2650,16.5,7.7,270.0,,'1111122,1111122,1111122' 
NDBC,ioos:station:NOAA.NDBC:SAUF1:1,2013-05-07T02:00:00Z,29.8570,-81.2650,16.5,7.2,260.0,,'1111122,1111122,1111122' 
NDBC,ioos:station:NOAA.NDBC:SAUF1:1,2013-05-07T03:00:00Z,29.8570,-81.2650,16.5,6.7,250.0,,'1111122,1111122,1111122' 
NDBC,ioos:station:NOAA.NDBC:SAUF1:1,2013-05-07T04:00:00Z,29.8570,-81.2650,16.5,7.7,260.0,,'1111122,1111122,1111122' 
NDBC,ioos:station:NOAA.NDBC:SAUF1:1,2013-05-07T05:00:00Z,29.8570,-81.2650,16.5,8.2,250.0,,'1111122,1111122,1111122' 
NDBC,ioos:station:NOAA.NDBC:SAUF1:1,2013-05-07T06:00:00Z,29.8570,-81.2650,16.5,8.2,250.0,,'1111122,1111122,1111122' 
NDBC,ioos:station:NOAA.NDBC:SAUF1:1,2013-05-07T07:00:00Z,29.8570,-81.2650,16.5,8.7,240.0,,'1111122,1111122,1111122' 
NDBC,ioos:station:NOAA.NDBC:SAUF1:1,2013-05-07T08:00:00Z,29.8570,-81.2650,16.5,9.8,250.0,,'1111122,1111122,1111122' 
NDBC,ioos:station:NOAA.NDBC:SAUF1:1,2013-05-07T09:00:00Z,29.8570,-81.2650,16.5,9.8,240.0,,'1111122,1111122,1111122' 
NDBC,ioos:station:NOAA.NDBC:SAUF1:1,2013-05-07T10:00:00Z,29.8570,-81.2650,16.5,10.3,250.0,,'1111122,1111122,1111122' 
NDBC,ioos:station:NOAA.NDBC:SAUF1:1,2013-05-07T11:00:00Z,29.8570,-81.2650,16.5,6.2,320.0,,'1111122,1111122,1111122' 
NDBC,ioos:station:NOAA.NDBC:SAUF1:1,2013-05-07T12:00:00Z,29.8570,-81.2650,16.5,6.2,330.0,,'1111122,1111122,1111122' 
NDBC,ioos:station:NOAA.NDBC:SAUF1:1,2013-05-07T13:00:00Z,29.8570,-81.2650,16.5,4.6,320.0,,'1111122,1111122,1111122' 
NDBC,ioos:station:NOAA.NDBC:SAUF1:1,2013-05-07T14:00:00Z,29.8570,-81.2650,16.5,3.6,300.0,,'1111122,1111122,1111122' 
NDBC,ioos:station:NOAA.NDBC:SAUF1:1,2013-05-07T15:00:00Z,29.8570,-81.2650,16.5,4.6,300.0,,'1111122,1111122,1111122' 
NDBC,ioos:station:NOAA.NDBC:SAUF1:1,2013-05-07T16:00:00Z,29.8570,-81.2650,16.5,8.2,300.0,,'1111122,1111122,1111122' 
NDBC,ioos:station:NOAA.NDBC:SAUF1:1,2013-05-07T17:00:00Z,29.8570,-81.2650,16.5,8.7,290.0,,'1111122,1111122,1111122' 
NDBC,ioos:station:NOAA.NDBC:SAUF1:1,2013-05-07T18:00:00Z,29.8570,-81.2650,16.5,8.2,280.0,,'1111122,1111122,1111122' 
NDBC,ioos:station:NOAA.NDBC:SAUF1:1,2013-05-07T19:00:00Z,29.8570,-81.2650,16.5,7.7,270.0,,'1111122,1111122,1111122' 
NDBC,ioos:station:NOAA.NDBC:SAUF1:1,2013-05-07T20:00:00Z,29.8570,-81.2650,16.5,8.2,270.0,,'1111122,1111122,1111122' 
NDBC,ioos:station:NOAA.NDBC:SAUF1:1,2013-05-07T21:00:00Z,29.8570,-81.2650,16.5,8.7,270.0,,'1111122,1111122,1111122' 
NDBC,ioos:station:NOAA.NDBC:SAUF1:1,2013-05-07T22:00:00Z,29.8570,-81.2650,16.5,10.3,270.0,,'1111122,1111122,1111122' 
NDBC,ioos:station:NOAA.NDBC:SAUF1:1,2013-05-07T23:00:00Z,29.8570,-81.2650,16.5,10.3,270.0,,'1111122,1111122,1111122' 
NDBC,ioos:station:NOAA.NDBC:SAUF1:1,2013-05-08T00:00:00Z,29.8570,-81.2650,16.5,8.2,270.0,,'1111122,1111122,1111122' 
NDBC,ioos:station:NOAA.NDBC:SAUF1:1,2013-05-08T01:00:00Z,29.8570,-81.2650,16.5,8.2,270.0,,'1111122,1111122,1111122' 
NDBC,ioos:station:NOAA.NDBC:SAUF1:1,2013-05-08T02:00:00Z,29.8570,-81.2650,16.5,8.7,280.0,,'1111122,1111122,1111122' 
NDBC,ioos:station:NOAA.NDBC:SAUF1:1,2013-05-08T03:00:00Z,29.8570,-81.2650,16.5,8.2,280.0,,'1111122,1111122,1111122' 
NDBC,ioos:station:NOAA.NDBC:SAUF1:1,2013-05-08T04:00:00Z,29.8570,-81.2650,16.5,8.7,290.0,,'1111122,1111122,1111122' 
NDBC,ioos:station:NOAA.NDBC:SAUF1:1,2013-05-08T05:00:00Z,29.8570,-81.2650,16.5,7.2,290.0,,'1111122,1111122,1111122' 
NDBC,ioos:station:NOAA.NDBC:SAUF1:1,2013-05-08T06:00:00Z,29.8570,-81.2650,16.5,6.2,290.0,,'1111122,1111122,1111122' 
NDBC,ioos:station:NOAA.NDBC:SAUF1:1,2013-05-08T07:00:00Z,29.8570,-81.2650,16.5,6.7,290.0,,'1111122,1111122,1111122' 
NDBC,ioos:station:NOAA.NDBC:SAUF1:1,2013-05-08T08:00:00Z,29.8570,-81.2650,16.5,5.1,300.0,,'1111122,1111122,1111122' 
NDBC,ioos:station:NOAA.NDBC:SAUF1:1,2013-05-08T09:00:00Z,29.8570,-81.2650,16.5,5.1,300.0,,'1111122,1111122,1111122' 
NDBC,ioos:station:NOAA.NDBC:SAUF1:1,2013-05-08T10:00:00Z,29.8570,-81.2650,16.5,5.1,290.0,,'1111122,1111122,1111122' 
NDBC,ioos:station:NOAA.NDBC:SAUF1:1,2013-05-08T11:00:00Z,29.8570,-81.2650,16.5,4.1,300.0,,'1111122,1111122,1111122' 
NDBC,ioos:station:NOAA.NDBC:SAUF1:1,2013-05-08T12:00:00Z,29.8570,-81.2650,16.5,4.6,300.0,,'1111122,1111122,1111122' 
NDBC,ioos:station:NOAA.NDBC:SAUF1:1,2013-05-08T13:00:00Z,29.8570,-81.2650,16.5,4.1,310.0,,'1111122,1111122,1111122' 
NDBC,ioos:station:NOAA.NDBC:SAUF1:1,2013-05-08T14:00:00Z,29.8570,-81.2650,16.5,2.6,280.0,,'1111122,1111122,1111122' 
NDBC,ioos:station:NOAA.NDBC:SAUF1:1,2013-05-08T15:00:00Z,29.8570,-81.2650,16.5,2.1,260.0,,'1111122,1111122,1111122' 
NDBC,ioos:station:NOAA.NDBC:SAUF1:1,2013-05-08T16:00:00Z,29.8570,-81.2650,16.5,2.6,230.0,,'1111122,1111122,1111122' 
NDBC,ioos:station:NOAA.NDBC:SAUF1:1,2013-05-08T17:00:00Z,29.8570,-81.2650,16.5,2.6,210.0,,'1111122,1111122,1111122' 
NDBC,ioos:station:NOAA.NDBC:SAUF1:1,2013-05-08T18:00:00Z,29.8570,-81.2650,16.5,4.6,230.0,,'1111122,1111122,1111122' 
NDBC,ioos:station:NOAA.NDBC:SAUF1:1,2013-05-08T19:00:00Z,29.8570,-81.2650,16.5,5.7,240.0,,'1111122,1111122,1111122' 
NDBC,ioos:station:NOAA.NDBC:SAUF1:1,2013-05-08T20:00:00Z,29.8570,-81.2650,16.5,5.7,240.0,,'1111122,1111122,1111122' 
NDBC,ioos:station:NOAA.NDBC:SAUF1:1,2013-05-08T21:00:00Z,29.8570,-81.2650,16.5,6.7,250.0,,'1111122,1111122,1111122' 
NDBC,ioos:station:NOAA.NDBC:SAUF1:1,2013-05-08T22:00:00Z,29.8570,-81.2650,16.5,6.2,240.0,,'1111122,1111122,1111122' 
NDBC,ioos:station:NOAA.NDBC:SAUF1:1,2013-05-08T23:00:00Z,29.8570,-81.2650,16.5,7.2,240.0,,'1111122,1111122,1111122' 
NDBC,ioos:station:NOAA.NDBC:SAUF1:1,2013-05-09T00:00:00Z,29.8570,-81.2650,16.5,6.2,250.0,,'1111122,1111122,1111122' 
NDBC,ioos:station:NOAA.NDBC:SAUF1:1,2013-05-09T01:00:00Z,29.8570,-81.2650,16.5,5.1,250.0,,'1111122,1111122,1111122' 
NDBC,ioos:station:NOAA.NDBC:SAUF1:1,2013-05-09T02:00:00Z,29.8570,-81.2650,16.5,5.1,250.0,,'1111122,1111122,1111122' 
NDBC,ioos:station:NOAA.NDBC:SAUF1:1,2013-05-09T03:00:00Z,29.8570,-81.2650,16.5,4.6,260.0,,'1111122,1111122,1111122' 
NDBC,ioos:station:NOAA.NDBC:SAUF1:1,2013-05-09T04:00:00Z,29.8570,-81.2650,16.5,4.1,270.0,,'1111122,1111122,1111122' 
NDBC,ioos:station:NOAA.NDBC:SAUF1:1,2013-05-09T05:00:00Z,29.8570,-81.2650,16.5,4.1,260.0,,'1111122,1111122,1111122' 
NDBC,ioos:station:NOAA.NDBC:SAUF1:1,2013-05-09T06:00:00Z,29.8570,-81.2650,16.5,3.1,260.0,,'1111122,1111122,1111122' 
NDBC,ioos:station:NOAA.NDBC:SAUF1:1,2013-05-09T07:00:00Z,29.8570,-81.2650,16.5,2.1,270.0,,'1111122,1111122,1111122' 
NDBC,ioos:station:NOAA.NDBC:SAUF1:1,2013-05-09T08:00:00Z,29.8570,-81.2650,16.5,4.1,260.0,,'1111122,1111122,1111122' 
NDBC,ioos:station:NOAA.NDBC:SAUF1:1,2013-05-09T09:00:00Z,29.8570,-81.2650,16.5,3.6,250.0,,'1111122,1111122,1111122' 
NDBC,ioos:station:NOAA.NDBC:SAUF1:1,2013-05-09T10:00:00Z,29.8570,-81.2650,16.5,2.6,230.0,,'1111122,1111122,1111122' 
NDBC,ioos:station:NOAA.NDBC:SAUF1:1,2013-05-09T11:00:00Z,29.8570,-81.2650,16.5,2.6,250.0,,'1111122,1111122,1111122' 
NDBC,ioos:station:NOAA.NDBC:SAUF1:1,2013-05-09T12:00:00Z,29.8570,-81.2650,16.5,1.0,250.0,,'1111122,1111122,1111122' 
NDBC,ioos:station:NOAA.NDBC:SAUF1:1,2013-05-09T13:00:00Z,29.8570,-81.2650,16.5,1.5,240.0,,'1111122,1111122,1111122' 